CM224 MRLB-MROC

Flight info

Callsign CM224
Flight time 0h 24m
Altitude 17000
Route PUXAS1V PUXAS
Aircraft B738/M-SDE2E3FGHIRWXY/LB1

Departure

Time 2026-05-03 22:47
Airport Daniel Oduber Quirós International Airport (MRLB)

Arrival

Time 2026-05-03 23:11
Airport Juan Santamaría International Airport (MROC)
Time Latitude Longitude Altitude Speed Heading
2026-05-03 22:33 10.60002 -85.53508 279 ft 0 kts 340°
2026-05-03 22:41 10.59991 -85.53504 282 ft 2 kts 341°
2026-05-03 22:41 10.59975 -85.53498 281 ft 2 kts 342°
2026-05-03 22:41 10.59959 -85.53493 281 ft 2 kts 343°
2026-05-03 22:41 10.59943 -85.53489 285 ft 2 kts 347°
2026-05-03 22:42 10.59927 -85.53486 284 ft 2 kts 359°
2026-05-03 22:42 10.59911 -85.53490 287 ft 2 kts 54°
2026-05-03 22:42 10.59907 -85.53498 287 ft 0 kts 70°
2026-05-03 22:44 10.59910 -85.53489 288 ft 5 kts 72°
2026-05-03 22:44 10.59931 -85.53432 279 ft 12 kts 69°
2026-05-03 22:45 10.59921 -85.53341 281 ft 16 kts 153°
2026-05-03 22:45 10.59849 -85.53315 279 ft 0 kts 160°
2026-05-03 22:46 10.59828 -85.53306 279 ft 9 kts 160°
2026-05-03 22:46 10.59750 -85.53319 278 ft 15 kts 231°
2026-05-03 22:46 10.59732 -85.53359 282 ft 2 kts 249°
2026-05-03 22:47 10.59632 -85.53638 280 ft 88 kts 250°
2026-05-03 22:47 10.59322 -85.54482 326 ft 162 kts 251°
2026-05-03 22:47 10.58878 -85.55655 1010 ft 189 kts 251°
2026-05-03 22:47 10.58409 -85.56954 2022 ft 197 kts 249°
2026-05-03 22:48 10.57941 -85.58302 2867 ft 212 kts 249°
2026-05-03 22:48 10.57422 -85.59777 3191 ft 237 kts 249°
2026-05-03 22:48 10.56841 -85.61405 3590 ft 255 kts 249°
2026-05-03 22:48 10.56223 -85.63129 4379 ft 259 kts 249°
2026-05-03 22:49 10.55440 -85.64781 5038 ft 272 kts 229°
2026-05-03 22:49 10.53883 -85.65915 5638 ft 280 kts 198°
2026-05-03 22:49 10.51980 -85.66141 6407 ft 280 kts 170°
2026-05-03 22:49 10.50165 -85.65448 7187 ft 280 kts 142°
2026-05-03 22:50 10.48891 -85.63982 7989 ft 279 kts 116°
2026-05-03 22:50 10.48151 -85.62145 8791 ft 282 kts 107°
2026-05-03 22:50 10.47573 -85.60220 9582 ft 287 kts 105°
2026-05-03 22:50 10.47015 -85.58275 10299 ft 292 kts 105°
2026-05-03 22:51 10.46410 -85.56215 10553 ft 316 kts 105°
2026-05-03 22:51 10.45736 -85.54001 10746 ft 338 kts 106°
2026-05-03 22:51 10.45009 -85.51678 11231 ft 348 kts 106°
2026-05-03 22:51 10.44276 -85.49359 11906 ft 350 kts 107°
2026-05-03 22:52 10.43490 -85.47004 12588 ft 354 kts 110°
2026-05-03 22:52 10.42470 -85.44703 13235 ft 359 kts 114°
2026-05-03 22:52 10.41337 -85.42422 13864 ft 363 kts 115°
2026-05-03 22:52 10.40172 -85.40118 14467 ft 366 kts 115°
2026-05-03 22:53 10.39017 -85.37804 15120 ft 367 kts 115°
2026-05-03 22:53 10.37897 -85.35521 15854 ft 364 kts 115°
2026-05-03 22:53 10.36777 -85.33211 16555 ft 364 kts 115°
2026-05-03 22:53 10.35665 -85.30902 16923 ft 362 kts 115°
2026-05-03 22:54 10.34557 -85.28594 16989 ft 365 kts 115°
2026-05-03 22:54 10.33439 -85.26268 17000 ft 365 kts 115°
2026-05-03 22:54 10.32342 -85.23985 17012 ft 363 kts 115°
2026-05-03 22:54 10.31038 -85.21791 17001 ft 363 kts 128°
2026-05-03 22:55 10.29384 -85.19858 17012 ft 363 kts 131°
2026-05-03 22:55 10.27686 -85.17960 17016 ft 363 kts 131°
2026-05-03 22:55 10.25983 -85.16063 17014 ft 363 kts 131°
2026-05-03 22:55 10.24292 -85.14160 17016 ft 363 kts 131°
2026-05-03 22:56 10.22622 -85.12265 17002 ft 353 kts 130°
2026-05-03 22:56 10.21038 -85.10455 17005 ft 342 kts 130°
2026-05-03 22:56 10.19461 -85.08646 17012 ft 340 kts 130°
2026-05-03 22:56 10.17893 -85.06846 17012 ft 337 kts 130°
2026-05-03 22:57 10.16331 -85.05051 16707 ft 339 kts 130°
2026-05-03 22:57 10.14798 -85.03290 16472 ft 336 kts 130°
2026-05-03 22:57 10.13244 -85.01506 16118 ft 336 kts 130°
2026-05-03 22:57 10.11706 -84.99732 15764 ft 333 kts 129°
2026-05-03 22:58 10.10249 -84.97908 15419 ft 330 kts 126°
2026-05-03 22:58 10.08846 -84.96074 15073 ft 328 kts 126°
2026-05-03 22:58 10.07471 -84.94254 14715 ft 327 kts 126°
2026-05-03 22:58 10.06084 -84.92421 14359 ft 326 kts 126°
2026-05-03 22:59 10.04697 -84.90596 14006 ft 326 kts 126°
2026-05-03 22:59 10.03310 -84.88778 13629 ft 325 kts 126°
2026-05-03 22:59 10.01939 -84.86986 13256 ft 324 kts 126°
2026-05-03 22:59 10.00550 -84.85173 12885 ft 322 kts 126°
2026-05-03 23:00 9.99188 -84.83397 12542 ft 320 kts 126°
2026-05-03 23:00 9.97822 -84.81617 12194 ft 319 kts 126°
2026-05-03 23:00 9.96461 -84.79846 11851 ft 317 kts 126°
2026-05-03 23:00 9.95107 -84.78082 11508 ft 315 kts 126°
2026-05-03 23:01 9.93764 -84.76334 11159 ft 311 kts 127°
2026-05-03 23:01 9.92456 -84.74633 10815 ft 306 kts 126°
2026-05-03 23:01 9.91150 -84.72932 10489 ft 304 kts 127°
2026-05-03 23:01 9.89855 -84.71247 10280 ft 298 kts 127°
2026-05-03 23:02 9.88590 -84.69601 10142 ft 291 kts 127°
2026-05-03 23:02 9.87377 -84.68023 10010 ft 283 kts 127°
2026-05-03 23:02 9.86167 -84.66449 9749 ft 282 kts 127°
2026-05-03 23:02 9.84966 -84.64874 9457 ft 280 kts 123°
2026-05-03 23:03 9.84635 -84.64325 9338 ft 279 kts 115°
2026-05-03 23:03 9.84291 -84.63345 9183 ft 277 kts 100°
2026-05-03 23:03 9.84278 -84.61418 8921 ft 274 kts 78°
2026-05-03 23:04 9.84853 -84.59580 8648 ft 272 kts 70°
2026-05-03 23:04 9.85533 -84.57791 8354 ft 271 kts 69°
2026-05-03 23:04 9.86215 -84.56029 8079 ft 270 kts 69°
2026-05-03 23:04 9.86900 -84.54250 7799 ft 268 kts 69°
2026-05-03 23:05 9.87568 -84.52497 7529 ft 263 kts 69°
2026-05-03 23:05 9.88211 -84.50798 7427 ft 252 kts 69°
2026-05-03 23:05 9.88817 -84.49188 7295 ft 241 kts 69°
2026-05-03 23:05 9.89396 -84.47643 7202 ft 228 kts 69°
2026-05-03 23:06 9.89947 -84.46177 7106 ft 215 kts 70°
2026-05-03 23:06 9.90465 -84.44788 7085 ft 208 kts 70°
2026-05-03 23:06 9.90980 -84.43410 6933 ft 212 kts 70°
2026-05-03 23:06 9.91501 -84.42012 6729 ft 214 kts 70°
2026-05-03 23:07 9.92026 -84.40605 6517 ft 212 kts 69°
2026-05-03 23:07 9.92548 -84.39207 6279 ft 209 kts 70°
2026-05-03 23:07 9.93057 -84.37845 6047 ft 202 kts 70°
2026-05-03 23:07 9.93540 -84.36554 5830 ft 193 kts 69°
2026-05-03 23:08 9.94007 -84.35306 5631 ft 183 kts 69°
2026-05-03 23:08 9.94451 -84.34121 5459 ft 182 kts 69°
2026-05-03 23:08 9.94950 -84.32785 5618 ft 212 kts 69°
2026-05-03 23:08 9.95446 -84.31459 5825 ft 195 kts 69°
2026-05-03 23:09 9.95918 -84.30203 5698 ft 179 kts 69°
2026-05-03 23:09 9.96335 -84.29087 5575 ft 161 kts 70°
2026-05-03 23:09 9.96713 -84.28084 5274 ft 149 kts 69°
2026-05-03 23:09 9.97081 -84.27102 4845 ft 148 kts 69°
2026-05-03 23:10 9.97445 -84.26124 4413 ft 148 kts 69°
2026-05-03 23:10 9.97807 -84.25149 4006 ft 150 kts 69°
2026-05-03 23:10 9.98182 -84.24141 3550 ft 153 kts 70°
2026-05-03 23:10 9.98553 -84.23142 3215 ft 151 kts 72°
2026-05-03 23:11 9.98916 -84.22158 3034 ft 150 kts 72°
2026-05-03 23:11 9.99248 -84.21261 3007 ft 115 kts 69°
2026-05-03 23:11 9.99479 -84.20646 3005 ft 73 kts 69°
2026-05-03 23:11 9.99581 -84.20441 3007 ft 13 kts 17°
2026-05-03 23:12 9.99667 -84.20427 3012 ft 11 kts 16°
2026-05-03 23:12 9.99721 -84.20430 3015 ft 0 kts 338°